SJX235 RCTP-VHHH

Flight info

Callsign SJX235
Flight time 1h 24m
Altitude 38000
Route CHALI1C CHALI T3 MKG A1 ELATO V522 ABBEY ABBEY4A
Aircraft A339/H-SADE1E2E3GHIJ3J5M1P2RWXY/LB2D1

Departure

Time 2026-05-04 11:16
Airport Taiwan Taoyuan International Airport (RCTP)

Arrival

Time 2026-05-04 12:40
Airport Hong Kong International Airport (VHHH)
Time Latitude Longitude Altitude Speed Heading
2026-05-04 10:32 25.07816 121.23731 124 ft 0 kts 319°
2026-05-04 11:01 25.07765 121.23789 124 ft 2 kts 290°
2026-05-04 11:02 25.07761 121.23805 124 ft 2 kts 277°
2026-05-04 11:02 25.07761 121.23821 124 ft 2 kts 263°
2026-05-04 11:05 25.07777 121.23863 124 ft 0 kts 228°
2026-05-04 11:08 25.07473 121.23770 124 ft 13 kts 189°
2026-05-04 11:10 25.06949 121.23130 124 ft 16 kts 229°
2026-05-04 11:12 25.06382 121.22410 124 ft 16 kts 229°
2026-05-04 11:12 25.06313 121.22323 124 ft 14 kts 229°
2026-05-04 11:12 25.06245 121.22252 124 ft 12 kts 201°
2026-05-04 11:12 25.06165 121.22284 124 ft 13 kts 137°
2026-05-04 11:13 25.06122 121.22362 124 ft 12 kts 96°
2026-05-04 11:13 25.06158 121.22445 124 ft 10 kts 49°
2026-05-04 11:13 25.06167 121.22456 124 ft 0 kts 49°
2026-05-04 11:16 25.12553 121.30168 3768 ft 241 kts 50°
2026-05-04 11:16 25.13706 121.31566 4282 ft 251 kts 50°
2026-05-04 11:16 25.14998 121.32898 4778 ft 263 kts 31°
2026-05-04 11:17 25.16824 121.33352 5424 ft 278 kts 354°
2026-05-04 11:17 25.18619 121.32605 6168 ft 281 kts 320°
2026-05-04 11:19 25.20234 121.18494 11201 ft 301 kts 269°
2026-05-04 11:19 25.20270 121.16096 11517 ft 319 kts 270°
2026-05-04 11:19 25.20312 121.13613 11819 ft 336 kts 270°
2026-05-04 11:19 25.20356 121.10988 12313 ft 346 kts 270°
2026-05-04 11:20 25.20400 121.08312 13049 ft 349 kts 270°
2026-05-04 11:20 25.20441 121.05650 13811 ft 350 kts 269°
2026-05-04 11:20 25.20129 121.03015 14466 ft 353 kts 253°
2026-05-04 11:20 25.19063 121.00589 15128 ft 358 kts 238°
2026-05-04 11:22 25.06077 120.86364 19180 ft 387 kts 227°
2026-05-04 11:22 25.04158 120.84299 19736 ft 390 kts 228°
2026-05-04 11:23 25.02222 120.82214 20256 ft 393 kts 228°
2026-05-04 11:23 25.00240 120.80079 20772 ft 396 kts 228°
2026-05-04 11:24 24.88147 120.67075 23628 ft 413 kts 228°
2026-05-04 11:25 24.86096 120.64873 24149 ft 414 kts 228°
2026-05-04 11:25 24.84026 120.62655 24632 ft 416 kts 228°
2026-05-04 11:25 24.81965 120.60442 25100 ft 418 kts 228°
2026-05-04 11:26 24.77784 120.55969 25955 ft 423 kts 227°
2026-05-04 11:27 24.61176 120.41897 28979 ft 435 kts 219°
2026-05-04 11:28 24.58676 120.40002 29517 ft 434 kts 219°
2026-05-04 11:28 24.56209 120.38135 30047 ft 432 kts 219°
2026-05-04 11:28 24.53729 120.36259 30585 ft 430 kts 219°
2026-05-04 11:28 24.51290 120.34416 31114 ft 428 kts 219°
2026-05-04 11:29 24.48831 120.32560 31615 ft 427 kts 220°
2026-05-04 11:29 24.46403 120.30727 32077 ft 427 kts 220°
2026-05-04 11:29 24.43949 120.28857 32533 ft 426 kts 220°
2026-05-04 11:29 24.41557 120.27000 33016 ft 424 kts 221°
2026-05-04 11:31 24.24886 120.14035 35976 ft 419 kts 221°
2026-05-04 11:33 24.08085 120.01032 37732 ft 428 kts 221°
2026-05-04 11:33 24.05632 119.99139 37945 ft 429 kts 221°
2026-05-04 11:33 24.03214 119.97274 38077 ft 431 kts 221°
2026-05-04 11:34 23.98288 119.93478 38083 ft 433 kts 221°
2026-05-04 11:34 23.93376 119.89695 38081 ft 433 kts 221°
2026-05-04 11:35 23.88430 119.85889 38077 ft 434 kts 221°
2026-05-04 11:35 23.83501 119.82104 38069 ft 434 kts 221°
2026-05-04 11:36 23.78558 119.78307 38071 ft 434 kts 221°
2026-05-04 11:36 23.73646 119.74537 38068 ft 434 kts 221°
2026-05-04 11:37 23.68687 119.70738 38075 ft 435 kts 221°
2026-05-04 11:37 23.63965 119.66696 38070 ft 430 kts 226°
2026-05-04 11:38 23.59707 119.62166 38072 ft 427 kts 232°
2026-05-04 11:38 23.55934 119.57174 38069 ft 424 kts 238°
2026-05-04 11:39 23.52678 119.51858 38067 ft 423 kts 241°
2026-05-04 11:41 23.41675 119.32954 38075 ft 423 kts 241°
2026-05-04 11:41 23.38539 119.27564 38074 ft 424 kts 241°
2026-05-04 11:42 23.35398 119.22173 38076 ft 424 kts 241°
2026-05-04 11:42 23.32230 119.16741 38075 ft 424 kts 240°
2026-05-04 11:43 23.29080 119.11343 38069 ft 424 kts 240°
2026-05-04 11:43 23.25912 119.05926 38076 ft 425 kts 240°
2026-05-04 11:44 23.22757 119.00531 38072 ft 425 kts 240°
2026-05-04 11:44 23.19586 118.95117 38078 ft 425 kts 240°
2026-05-04 11:45 23.16397 118.89677 38074 ft 425 kts 240°
2026-05-04 11:45 23.13217 118.84262 38078 ft 425 kts 241°
2026-05-04 11:46 23.10058 118.78883 38074 ft 425 kts 240°
2026-05-04 11:46 23.06880 118.73478 38073 ft 425 kts 240°
2026-05-04 11:47 23.03687 118.68059 38074 ft 425 kts 240°
2026-05-04 11:47 23.00517 118.62678 38073 ft 426 kts 240°
2026-05-04 11:48 22.97315 118.57251 38072 ft 426 kts 240°
2026-05-04 11:48 22.94113 118.51836 38069 ft 426 kts 240°
2026-05-04 11:49 22.90924 118.46478 38067 ft 427 kts 240°
2026-05-04 11:49 22.87711 118.41084 38073 ft 428 kts 240°
2026-05-04 11:50 22.84488 118.35674 38075 ft 428 kts 240°
2026-05-04 11:50 22.81247 118.30242 38074 ft 428 kts 240°
2026-05-04 11:51 22.78033 118.24858 38077 ft 428 kts 240°
2026-05-04 11:51 22.74798 118.19450 38069 ft 428 kts 240°
2026-05-04 11:52 22.71554 118.14027 38069 ft 429 kts 240°
2026-05-04 11:52 22.68314 118.08616 38079 ft 429 kts 240°
2026-05-04 11:53 22.65072 118.03207 38071 ft 429 kts 240°
2026-05-04 11:53 22.61826 117.97798 38076 ft 429 kts 240°
2026-05-04 11:55 22.48908 117.76095 38068 ft 431 kts 240°
2026-05-04 11:56 22.45665 117.70654 38070 ft 431 kts 240°
2026-05-04 11:56 22.42413 117.65198 38064 ft 430 kts 240°
2026-05-04 11:57 22.39182 117.59785 38063 ft 431 kts 241°
2026-05-04 11:57 22.36406 117.54106 38064 ft 428 kts 248°
2026-05-04 11:58 22.34465 117.48071 38056 ft 427 kts 256°
2026-05-04 11:58 22.33382 117.41773 38060 ft 425 kts 264°
2026-05-04 11:59 22.33099 117.35420 38051 ft 427 kts 268°
2026-05-04 11:59 22.32972 117.29022 38055 ft 427 kts 268°
2026-05-04 12:00 22.32853 117.22599 38057 ft 427 kts 268°
2026-05-04 12:00 22.32732 117.16241 38058 ft 427 kts 268°
2026-05-04 12:01 22.32608 117.09824 38060 ft 428 kts 268°
2026-05-04 12:02 22.32156 116.87431 38067 ft 427 kts 268°
2026-05-04 12:03 22.32020 116.81028 38076 ft 426 kts 268°
2026-05-04 12:03 22.31884 116.74661 38084 ft 426 kts 268°
2026-05-04 12:04 22.31746 116.68288 37786 ft 424 kts 268°
2026-05-04 12:04 22.31676 116.65098 37517 ft 422 kts 268°
2026-05-04 12:04 22.31607 116.61968 37252 ft 419 kts 268°
2026-05-04 12:05 22.31537 116.58854 36983 ft 416 kts 268°
2026-05-04 12:05 22.31468 116.55733 36710 ft 415 kts 268°
2026-05-04 12:05 22.31395 116.52647 36446 ft 415 kts 268°
2026-05-04 12:05 22.31324 116.49517 36179 ft 415 kts 268°
2026-05-04 12:06 22.31252 116.46444 35913 ft 415 kts 268°
2026-05-04 12:06 22.31179 116.43317 35646 ft 416 kts 268°
2026-05-04 12:06 22.31105 116.40233 35382 ft 416 kts 268°
2026-05-04 12:06 22.31032 116.37106 35111 ft 416 kts 268°
2026-05-04 12:07 22.30955 116.33971 34847 ft 417 kts 267°
2026-05-04 12:07 22.30879 116.30876 34587 ft 418 kts 267°
2026-05-04 12:07 22.30802 116.27713 34283 ft 420 kts 267°
2026-05-04 12:07 22.30726 116.24590 33912 ft 420 kts 267°
2026-05-04 12:08 22.30649 116.21446 33418 ft 422 kts 267°
2026-05-04 12:08 22.30570 116.18293 32833 ft 423 kts 267°
2026-05-04 12:08 22.30491 116.15124 32254 ft 423 kts 267°
2026-05-04 12:08 22.30409 116.11954 31624 ft 423 kts 266°
2026-05-04 12:09 22.30327 116.08791 30944 ft 425 kts 267°
2026-05-04 12:09 22.30245 116.05608 30241 ft 426 kts 266°
2026-05-04 12:09 22.30162 116.02421 29515 ft 428 kts 266°
2026-05-04 12:09 22.30076 115.99179 28779 ft 430 kts 266°
2026-05-04 12:10 22.29990 115.95979 28247 ft 427 kts 266°
2026-05-04 12:10 22.29905 115.92808 27745 ft 424 kts 266°
2026-05-04 12:10 22.29820 115.89645 27239 ft 421 kts 266°
2026-05-04 12:10 22.29734 115.86515 26766 ft 417 kts 266°
2026-05-04 12:11 22.29649 115.83409 26312 ft 413 kts 267°
2026-05-04 12:11 22.29566 115.80325 25855 ft 409 kts 267°
2026-05-04 12:11 22.29487 115.77282 25419 ft 405 kts 267°
2026-05-04 12:11 22.29408 115.74299 24981 ft 402 kts 267°
2026-05-04 12:12 22.29328 115.71302 24529 ft 399 kts 267°
2026-05-04 12:12 22.29248 115.68286 24080 ft 396 kts 268°
2026-05-04 12:12 22.29171 115.65335 23640 ft 393 kts 268°
2026-05-04 12:12 22.29094 115.62426 23208 ft 390 kts 267°
2026-05-04 12:13 22.29013 115.59493 22784 ft 387 kts 268°
2026-05-04 12:14 22.28453 115.39612 19804 ft 374 kts 268°
2026-05-04 12:15 22.28372 115.36835 19373 ft 373 kts 268°
2026-05-04 12:15 22.28291 115.34017 18941 ft 371 kts 268°
2026-05-04 12:15 22.28209 115.31248 18516 ft 369 kts 268°
2026-05-04 12:15 22.28129 115.28503 18096 ft 367 kts 268°
2026-05-04 12:16 22.28002 115.25741 17669 ft 364 kts 262°
2026-05-04 12:16 22.27265 115.23139 17296 ft 362 kts 249°
2026-05-04 12:16 22.26313 115.20645 16969 ft 359 kts 249°
2026-05-04 12:16 22.25386 115.18171 16645 ft 356 kts 249°
2026-05-04 12:17 22.24475 115.15688 16319 ft 352 kts 250°
2026-05-04 12:17 22.23587 115.13236 16011 ft 350 kts 250°
2026-05-04 12:17 22.22721 115.10819 15693 ft 348 kts 250°
2026-05-04 12:17 22.21851 115.08375 15375 ft 347 kts 250°
2026-05-04 12:18 22.20994 115.05962 15064 ft 346 kts 250°
2026-05-04 12:18 22.20135 115.03542 14756 ft 344 kts 250°
2026-05-04 12:18 22.19286 115.01141 14333 ft 344 kts 250°
2026-05-04 12:18 22.18431 114.98716 13524 ft 354 kts 250°
2026-05-04 12:19 22.17552 114.96232 12840 ft 358 kts 250°
2026-05-04 12:19 22.16663 114.93722 12368 ft 355 kts 250°
2026-05-04 12:19 22.15786 114.91245 11918 ft 353 kts 250°
2026-05-04 12:19 22.14914 114.88784 11410 ft 351 kts 250°
2026-05-04 12:20 22.14046 114.86340 10917 ft 350 kts 250°
2026-05-04 12:20 22.13172 114.83873 10416 ft 349 kts 250°
2026-05-04 12:20 22.12312 114.81446 9931 ft 348 kts 250°
2026-05-04 12:20 22.11454 114.79028 9493 ft 345 kts 250°
2026-05-04 12:21 22.10615 114.76664 9314 ft 334 kts 250°
2026-05-04 12:21 22.09798 114.74362 9145 ft 324 kts 250°
2026-05-04 12:21 22.09004 114.72129 8976 ft 315 kts 250°
2026-05-04 12:21 22.08232 114.69958 8819 ft 306 kts 250°
2026-05-04 12:22 22.07625 114.67781 8650 ft 298 kts 263°
2026-05-04 12:22 22.07547 114.65588 8517 ft 290 kts 269°
2026-05-04 12:22 22.07555 114.63443 8383 ft 282 kts 270°
2026-05-04 12:22 22.07578 114.61352 8256 ft 275 kts 270°
2026-05-04 12:23 22.07602 114.59328 8090 ft 270 kts 270°
2026-05-04 12:23 22.07624 114.57299 7821 ft 269 kts 270°
2026-05-04 12:23 22.07641 114.55300 7538 ft 269 kts 270°
2026-05-04 12:23 22.07656 114.53280 7151 ft 273 kts 270°
2026-05-04 12:24 22.07669 114.51205 6535 ft 285 kts 270°
2026-05-04 12:24 22.07676 114.49049 6138 ft 288 kts 270°
2026-05-04 12:24 22.07677 114.46911 6033 ft 288 kts 270°
2026-05-04 12:24 22.07675 114.44743 6032 ft 290 kts 270°
2026-05-04 12:25 22.07742 114.42548 6028 ft 291 kts 273°
2026-05-04 12:25 22.07857 114.40344 6032 ft 298 kts 274°
2026-05-04 12:25 22.07979 114.38101 5977 ft 299 kts 274°
2026-05-04 12:25 22.08092 114.35922 5856 ft 291 kts 274°
2026-05-04 12:26 22.08200 114.33764 5736 ft 283 kts 273°
2026-05-04 12:26 22.08302 114.31675 5613 ft 276 kts 273°
2026-05-04 12:26 22.08399 114.29635 5453 ft 271 kts 273°
2026-05-04 12:26 22.08493 114.27608 5286 ft 268 kts 273°
2026-05-04 12:27 22.08588 114.25577 5167 ft 271 kts 273°
2026-05-04 12:27 22.08681 114.23554 5044 ft 271 kts 273°
2026-05-04 12:27 22.08773 114.21531 4925 ft 271 kts 273°
2026-05-04 12:27 22.08866 114.19512 4804 ft 272 kts 273°
2026-05-04 12:28 22.08959 114.17478 4682 ft 273 kts 273°
2026-05-04 12:28 22.09052 114.15427 4560 ft 273 kts 273°
2026-05-04 12:28 22.09145 114.13387 4438 ft 274 kts 273°
2026-05-04 12:28 22.09239 114.11317 4315 ft 274 kts 273°
2026-05-04 12:29 22.09331 114.09273 4193 ft 275 kts 273°
2026-05-04 12:29 22.09424 114.07211 4070 ft 275 kts 273°
2026-05-04 12:29 22.09516 114.05149 4021 ft 275 kts 273°
2026-05-04 12:29 22.09608 114.03090 4019 ft 275 kts 273°
2026-05-04 12:30 22.09700 114.01016 4018 ft 275 kts 273°
2026-05-04 12:30 22.09792 113.98955 4012 ft 276 kts 273°
2026-05-04 12:30 22.09884 113.96870 4009 ft 275 kts 273°
2026-05-04 12:30 22.09975 113.94815 3994 ft 276 kts 273°
2026-05-04 12:31 22.10065 113.92755 3876 ft 275 kts 273°
2026-05-04 12:31 22.10155 113.90703 3757 ft 276 kts 273°
2026-05-04 12:31 22.10246 113.88617 3635 ft 276 kts 273°
2026-05-04 12:31 22.10335 113.86561 3499 ft 273 kts 273°
2026-05-04 12:32 22.10422 113.84538 3343 ft 269 kts 273°
2026-05-04 12:32 22.10595 113.80568 3039 ft 261 kts 273°
2026-05-04 12:32 22.10815 113.78664 3003 ft 250 kts 292°
2026-05-04 12:33 22.11743 113.77154 3001 ft 234 kts 322°
2026-05-04 12:33 22.13087 113.76279 3009 ft 219 kts 338°
2026-05-04 12:33 22.14454 113.75627 2864 ft 216 kts 340°
2026-05-04 12:33 22.15808 113.74995 2820 ft 206 kts 340°
2026-05-04 12:34 22.17098 113.74380 2819 ft 195 kts 340°
2026-05-04 12:34 22.18338 113.73776 2816 ft 194 kts 340°
2026-05-04 12:34 22.19570 113.73173 2792 ft 194 kts 339°
2026-05-04 12:34 22.20803 113.72560 2766 ft 194 kts 339°
2026-05-04 12:35 22.22020 113.71956 2748 ft 194 kts 339°
2026-05-04 12:35 22.23313 113.71592 2707 ft 187 kts 10°
2026-05-04 12:35 22.24451 113.72153 2660 ft 180 kts 42°
2026-05-04 12:35 22.25398 113.73044 2607 ft 180 kts 45°
2026-05-04 12:36 22.26348 113.73953 2394 ft 182 kts 45°
2026-05-04 12:36 22.27310 113.74867 2116 ft 185 kts 44°
2026-05-04 12:36 22.28153 113.75864 1854 ft 175 kts 64°
2026-05-04 12:36 22.28572 113.77016 1796 ft 154 kts 72°
2026-05-04 12:37 22.28894 113.78045 1786 ft 139 kts 73°
2026-05-04 12:37 22.29203 113.79040 1747 ft 140 kts 72°
2026-05-04 12:37 22.29513 113.80016 1566 ft 138 kts 72°
2026-05-04 12:37 22.29828 113.81000 1389 ft 138 kts 71°
2026-05-04 12:38 22.30146 113.81983 1215 ft 137 kts 71°
2026-05-04 12:38 22.30458 113.82948 1039 ft 137 kts 72°
2026-05-04 12:38 22.30767 113.83929 871 ft 137 kts 72°
2026-05-04 12:38 22.31072 113.84889 658 ft 136 kts 71°
2026-05-04 12:39 22.31386 113.85857 492 ft 136 kts 73°
2026-05-04 12:39 22.31701 113.86818 326 ft 136 kts 71°
2026-05-04 12:39 22.32014 113.87779 142 ft 135 kts 69°
2026-05-04 12:39 22.32315 113.88716 44 ft 118 kts 68°
2026-05-04 12:40 22.32512 113.89319 44 ft 58 kts 71°
2026-05-04 12:40 22.32625 113.89671 44 ft 40 kts 71°
2026-05-04 12:40 22.32699 113.89925 44 ft 31 kts 82°
2026-05-04 12:40 22.32688 113.90146 44 ft 26 kts 101°
2026-05-04 12:41 22.32662 113.90326 44 ft 21 kts 86°
2026-05-04 12:41 22.32706 113.90484 44 ft 22 kts 69°
2026-05-04 12:41 22.32758 113.90643 44 ft 23 kts 71°
2026-05-04 12:41 22.32812 113.90810 44 ft 23 kts 70°
2026-05-04 12:42 22.32866 113.90981 44 ft 24 kts 71°
2026-05-04 12:42 22.32923 113.91156 44 ft 24 kts 71°
2026-05-04 12:42 22.32980 113.91334 44 ft 25 kts 71°
2026-05-04 12:42 22.33036 113.91507 44 ft 24 kts 71°
2026-05-04 12:43 22.33090 113.91675 44 ft 22 kts 71°
2026-05-04 12:43 22.33137 113.91839 44 ft 23 kts 75°
2026-05-04 12:43 22.33181 113.91988 44 ft 17 kts 72°
2026-05-04 12:43 22.33183 113.92109 44 ft 16 kts 139°
2026-05-04 12:44 22.33073 113.92159 44 ft 17 kts 160°
2026-05-04 12:44 22.32955 113.92203 44 ft 17 kts 160°
2026-05-04 12:44 22.32836 113.92249 44 ft 18 kts 161°
2026-05-04 12:44 22.32716 113.92294 44 ft 18 kts 160°
2026-05-04 12:45 22.32591 113.92342 44 ft 18 kts 161°
2026-05-04 12:45 22.32466 113.92389 44 ft 19 kts 160°
2026-05-04 12:45 22.32340 113.92437 44 ft 19 kts 161°
2026-05-04 12:45 22.32252 113.92483 44 ft 12 kts 120°
2026-05-04 12:46 22.32259 113.92578 44 ft 13 kts 73°
2026-05-04 12:46 22.32249 113.92657 44 ft 11 kts 133°
2026-05-04 12:46 22.32169 113.92700 44 ft 13 kts 160°
2026-05-04 12:46 22.32075 113.92735 44 ft 14 kts 157°
2026-05-04 12:47 22.31976 113.92778 44 ft 15 kts 161°
2026-05-04 12:47 22.31891 113.92781 44 ft 12 kts 218°
2026-05-04 12:47 22.31846 113.92701 44 ft 13 kts 250°
2026-05-04 12:47 22.31814 113.92603 44 ft 14 kts 251°
2026-05-04 12:48 22.31777 113.92491 44 ft 17 kts 251°
2026-05-04 12:48 22.31735 113.92358 44 ft 20 kts 250°
2026-05-04 12:48 22.31688 113.92212 44 ft 20 kts 251°
2026-05-04 12:48 22.31642 113.92077 44 ft 16 kts 243°
2026-05-04 12:49 22.31564 113.92047 44 ft 12 kts 167°
2026-05-04 12:49 22.31474 113.92078 44 ft 13 kts 161°
2026-05-04 12:49 22.31409 113.92142 44 ft 13 kts 120°
2026-05-04 12:49 22.31367 113.92235 44 ft 14 kts 115°
2026-05-04 12:50 22.31330 113.92316 44 ft 11 kts 116°
2026-05-04 12:50 22.31294 113.92396 44 ft 12 kts 115°
2026-05-04 12:50 22.31257 113.92480 44 ft 10 kts 116°
2026-05-04 12:50 22.31211 113.92509 44 ft 8 kts 173°
2026-05-04 12:51 22.31156 113.92493 44 ft 6 kts 204°
2026-05-04 12:51 22.31110 113.92498 44 ft 7 kts 145°
2026-05-04 12:51 22.31096 113.92517 44 ft 1 kts 112°
2026-05-04 12:51 22.31084 113.92541 44 ft 5 kts 118°
2026-05-04 12:52 22.31076 113.92558 44 ft 0 kts 115°
2026-05-04 12:52 22.31076 113.92561 44 ft 0 kts 115°